CAPE
5 5 3 2 0 0 0 0 0 0 0 0 0 0 0 0 0 0 0 0 0 0 0 0 0 0 0 0 0 0 0 0 0 0 0 0 0 0 0 0 0 0 1 4 42 4 0
2 2 2 3 2 0 0 0 0 0 0 0 0 0 0 0 0 0 0 0 0 0 0 0 0 0 0 0 0 0 0 0 0 0 0 0 0 0 0 0 0 0 0 12 115 42 31
6 5 2 3 4 3 2 1 0 0 0 0 0 0 0 0 0 0 0 0 0 0 0 0 0 0 0 0 0 0 0 0 0 0 0 0 0 0 0 0 0 21 7 52 180 155 86
7 10 10 8 7 4 3 4 3 0 0 0 0 0 0 0 0 0 0 0 0 0 0 0 0 0 0 0 0 0 0 0 0 0 0 0 0 0 0 0 0 16 52 74 137 168 136
1 3 4 3 4 3 3 4 2 1 0 0 0 0 0 0 0 0 0 0 0 0 0 0 0 0 0 0 0 0 0 0 0 0 0 0 0 0 0 0 0 8 90 58 51 126 26
6 4 2 3 3 1 0 0 0 0 0 0 0 0 0 0 0 0 0 0 0 0 0 0 0 0 0 0 0 0 0 0 0 0 0 0 0 0 0 0 0 26 10 41 20 4 38
8 7 7 7 4 2 0 0 0 0 0 0 0 0 0 0 0 0 0 0 0 0 0 0 0 0 0 0 0 0 0 0 0 0 0 0 0 0 0 0 0 17 7 19 26 17 36
3 4 4 5 6 3 0 0 0 0 0 0 0 0 0 0 0 0 0 0 0 0 0 0 0 0 0 0 0 0 0 0 0 0 0 0 0 0 0 0 0 5 23 24 28 45 12
3 3 2 2 1 0 0 0 0 0 0 0 0 0 0 0 0 0 0 0 0 0 0 0 0 0 0 0 0 0 0 0 0 0 0 0 0 0 0 0 0 4 4 22 26 31 1
0 3 0 1 0 0 0 0 0 0 0 0 0 0 0 0 0 0 0 0 0 0 0 0 0 0 0 0 0 0 0 0 0 0 0 0 0 0 0 0 0 0 0 6 18 33 42
1 0 3 0 0 0 0 0 0 0 0 0 0 0 0 0 0 0 0 0 0 0 0 0 0 0 0 0 0 0 0 0 0 0 0 0 0 0 0 0 0 0 4 3 5 21 7
4 1 3 1 1 0 0 0 0 0 0 0 0 0 0 0 0 0 0 0 0 0 0 0 0 0 0 0 0 0 0 0 0 0 0 0 0 0 0 0 0 0 1 7 2 30 17
0 2 2 0 0 0 0 0 0 0 0 0 0 0 0 0 0 0 0 0 0 0 0 0 0 0 0 0 0 0 0 0 0 0 0 0 0 0 0 0 0 0 0 2 0 1 2
10 12 13 6 0 0 0 0 0 0 0 0 0 0 0 0 0 0 0 0 0 0 0 0 0 0 0 0 0 0 0 0 0 0 0 0 0 0 0 0 0 0 0 0 0 1 1
8 6 3 1 4 0 0 0 0 0 0 0 0 0 0 0 0 0 0 0 0 0 0 0 0 0 0 0 0 0 0 0 0 0 0 0 0 0 0 0 0 0 0 0 0 9 10
5 3 3 0 0 0 0 0 0 0 0 0 0 0 0 0 0 0 0 0 0 0 0 0 0 0 0 0 0 0 0 0 0 0 0 0 0 0 0 0 0 0 0 0 0 0 5
11 9 6 3 2 0 0 0 0 0 0 0 0 0 0 0 0 0 0 0 0 0 0 0 0 0 0 0 0 0 0 0 0 0 0 0 0 0 0 0 0 0 0 0 0 0 0
12 13 1 0 1 4 0 0 0 0 0 0 0 0 0 0 0 0 0 0 0 0 0 0 0 0 0 0 0 0 0 0 0 0 0 0 0 0 0 0 0 0 0 0 0 0 0
14 9 7 3 0 0 3 1 0 0 0 0 0 0 0 0 0 0 0 0 0 0 0 0 0 0 0 0 0 0 0 0 0 0 0 0 0 0 0 0 0 0 0 0 0 0 0
11 11 12 4 3 1 8 3 0 0 0 0 0 0 0 0 0 0 0 0 0 0 0 0 0 0 0 0 0 0 0 0 0 0 0 0 0 0 0 0 0 0 0 0 0 0 0
13 17 17 14 3 9 5 0 0 0 0 1 15 15 12 0 16 17 0 0 0 0 0 0 0 0 0 0 0 0 0 0 0 0 0 0 0 0 0 0 0 0 0 0 0 0 0
6 6 6 8 1 0 1 6 9 0 0 5 19 7 4 10 3 0 0 0 0 0 0 2 0 0 0 0 0 0 0 0 0 0 0 0 0 0 0 0 0 0 0 0 0 0 0
4 6 5 4 5 5 1 0 2 0 0 19 40 24 25 7 7 3 0 0 0 18 10 1 0 0 0 0 0 0 0 0 0 0 0 0 0 0 0 0 0 0 0 0 0 0 0
3 11 19 19 20 22 19 10 1 0 0 21 21 57 25 12 20 11 10 8 3 5 6 1 0 0 0 0 0 0 0 0 0 0 0 0 0 0 0 0 0 0 0 0 0 0 0
4 2 9 20 21 35 34 33 28 6 0 7 42 78 14 1 22 12 7 5 15 6 0 0 0 0 0 0 0 0 0 0 0 0 0 0 0 0 0 0 0 0 0 0 0 0 0
4 5 6 8 21 37 54 99 100 55 13 5 49 126 111 16 1 32 24 16 6 17 13 7 0 0 0 0 0 0 0 0 0 0 0 0 0 0 0 0 0 0 0 0 0 0 0
2 0 4 14 27 32 73 88 92 101 47 6 15 99 98 27 0 0 11 5 33 22 13 0 22 12 0 0 0 0 0 0 0 0 0 0 0 0 0 0 0 0 0 0 0 0 0
0 0 6 22 14 8 22 35 24 48 52 43 5 65 93 10 22 22 21 30 13 21 5 8 23 0 0 36 18 1 0 0 0 0 0 0 0 0 0 0 0 0 0 0 0 0 0
1 8 7 16 12 19 19 36 31 19 9 14 19 48 137 77 0 4 22 8 30 25 6 1 0 1 18 32 57 73 19 8 2 0 0 0 0 0 0 0 0 0 0 0 0 592 401
CIN
-0 -0 -0 -0 -0 -0 -0 -0 -0 -0 -0 -0 -0 -0 -0 -0 -0 -0 -0 -0 -0 -0 -0 -0 -0 -0 -0 -0 -0 -0 -0 -0 -0 -0 -0 -0 -0 -0 -0 -0 -0 -0 -1 -1 -9 -90 -0
-0 -0 -0 -0 -0 -0 -0 -0 -0 -0 -0 -0 -0 -0 -0 -0 -0 -0 -0 -0 -0 -0 -0 -0 -0 -0 -0 -0 -0 -0 -0 -0 -0 -0 -0 -0 -0 -0 -0 -0 -0 -0 -0 -4 -1 -40 -130
-0 -0 -0 -0 -0 -0 -0 -0 -0 -0 -0 -0 -0 -0 -0 -0 -0 -0 -0 -0 -0 -0 -0 -0 -0 -0 -0 -0 -0 -0 -0 -0 -0 -0 -0 -0 -0 -0 -0 -0 -0 -4 -2 -3 -3 -13 -36
-0 -0 -0 -0 -0 -0 -0 -0 -0 -0 -0 -0 -0 -0 -0 -0 -0 -0 -0 -0 -0 -0 -0 -0 -0 -0 -0 -0 -0 -0 -0 -0 -0 -0 -0 -0 -0 -0 -0 -0 -0 -3 -7 -11 -4 -7 -20
-0 -0 -0 -0 -0 -0 -0 -0 -0 -0 -0 -0 -0 -0 -0 -0 -0 -0 -0 -0 -0 -0 -0 -0 -0 -0 -0 -0 -0 -0 -0 -0 -0 -0 -0 -0 -0 -0 -0 -0 -0 -3 -7 -9 -6 -6 -38
-0 -0 -0 -0 -0 -0 -0 -0 -0 -0 -0 -0 -0 -0 -0 -0 -0 -0 -0 -0 -0 -0 -0 -0 -0 -0 -0 -0 -0 -0 -0 -0 -0 -0 -0 -0 -0 -0 -0 -0 -1 -7 -11 -29 -6 -4 -6
-0 -0 -0 -0 -0 -0 -0 -0 -0 -0 -0 -0 -0 -0 -0 -0 -0 -0 -0 -0 -0 -0 -0 -0 -0 -0 -0 -0 -0 -0 -0 -0 -0 -0 -0 -0 -0 -0 -0 -0 -0 -8 -6 -20 -9 -9 -4
-0 -0 -0 -0 -0 -0 -0 -0 -0 -0 -0 -0 -0 -0 -0 -0 -0 -0 -0 -0 -0 -0 -0 -0 -0 -0 -0 -0 -0 -0 -0 -0 -0 -0 -0 -0 -0 -0 -0 -0 -0 -5 -5 -5 -9 -6 -13
-0 -0 -0 -0 -0 -0 -0 -0 -0 -0 -0 -0 -0 -0 -0 -0 -0 -0 -0 -0 -0 -0 -0 -0 -0 -0 -0 -0 -0 -0 -0 -0 -0 -0 -0 -0 -0 -0 -0 -0 -0 -4 -6 -7 -10 -5 -11
-0 -0 -0 -0 -0 -0 -0 -0 -0 -0 -0 -0 -0 -0 -0 -0 -0 -0 -0 -0 -0 -0 -0 -0 -0 -0 -0 -0 -0 -0 -0 -0 -0 -0 -0 -0 -0 -0 -0 -0 -0 -4 -0 -4 -6 -5 -6
-3 -0 -0 -0 -0 -0 -0 -0 -0 -0 -0 -0 -0 -0 -0 -0 -0 -0 -0 -0 -0 -0 -0 -0 -0 -0 -0 -0 -0 -0 -0 -0 -0 -0 -0 -0 -0 -0 -0 -0 -0 -0 -9 -3 -6 -8 -8
-1 -0 -0 -0 -0 -0 -0 -0 -0 -0 -0 -0 -0 -0 -0 -0 -0 -0 -0 -0 -0 -0 -0 -0 -0 -0 -0 -0 -0 -0 -0 -0 -0 -0 -0 -0 -0 -0 -0 -0 -0 -0 -7 -9 -3 -9 -5
-0 -0 -0 -0 -0 -0 -0 -0 -0 -0 -0 -0 -0 -0 -0 -0 -0 -0 -0 -0 -0 -0 -0 -0 -0 -0 -0 -0 -0 -0 -0 -0 -0 -0 -0 -0 -0 -0 -0 -0 -0 -0 -1 -7 -0 -3 -8
-0 -0 -0 -0 -0 -0 -0 -0 -0 -0 -0 -0 -0 -0 -0 -0 -0 -0 -0 -0 -0 -0 -0 -0 -0 -0 -0 -0 -0 -0 -0 -0 -0 -0 -0 -0 -0 -0 -0 -0 -0 -0 -0 -0 -0 -5 -7
-0 -0 -0 -0 -1 -0 -0 -0 -0 -0 -0 -0 -0 -0 -0 -0 -0 -0 -0 -0 -0 -0 -0 -0 -0 -0 -0 -0 -0 -0 -0 -0 -0 -0 -0 -0 -0 -0 -0 -0 -0 -0 -0 -0 -0 -7 -11
-0 -0 -0 -0 -0 -0 -0 -0 -0 -0 -0 -0 -0 -0 -0 -0 -0 -0 -0 -0 -0 -0 -0 -0 -0 -0 -0 -0 -0 -0 -0 -0 -0 -0 -0 -0 -0 -0 -0 -0 -0 -0 -0 -0 -0 -0 -7
-0 -0 -0 -2 -2 -0 -0 -0 -0 -0 -0 -0 -0 -0 -0 -0 -0 -0 -0 -0 -0 -0 -0 -0 -0 -0 -0 -0 -0 -0 -0 -0 -0 -0 -0 -0 -0 -0 -0 -0 -0 -0 -0 -0 -0 -0 -0
-0 -0 -0 -0 -4 -4 -0 -0 -0 -0 -0 -0 -0 -0 -0 -0 -0 -0 -0 -0 -0 -0 -0 -0 -0 -0 -0 -0 -0 -0 -0 -0 -0 -0 -0 -0 -0 -0 -0 -0 -0 -0 -0 -0 -0 -0 -0
-0 -0 -0 -1 -0 -0 -2 -0 -0 -0 -0 -0 -0 -0 -0 -0 -0 -0 -0 -0 -0 -0 -0 -0 -0 -0 -0 -0 -0 -0 -0 -0 -0 -0 -0 -0 -0 -0 -0 -0 -0 -0 -0 -0 -0 -0 -0
-0 -0 -0 -0 -0 -0 -2 -3 -0 -0 -0 -0 -1 -0 -0 -0 -0 -0 -0 -0 -0 -0 -0 -0 -0 -0 -0 -0 -0 -0 -0 -0 -0 -0 -0 -0 -0 -0 -0 -0 -0 -0 -0 -0 -0 -0 -0
-0 -0 -0 -0 -1 -0 -0 -0 -0 -0 -0 -1 -4 -5 -10 -1 -4 -4 -0 -0 -0 -0 -0 -0 -0 -0 -0 -0 -0 -0 -0 -0 -0 -0 -0 -0 -0 -0 -0 -0 -0 -0 -0 -0 -0 -0 -0
-0 -0 -0 -0 -0 -0 -0 -1 -1 -0 -0 -1 -1 -3 -14 -5 -2 -0 -0 -0 -0 -0 -0 -2 -0 -0 -0 -0 -0 -0 -0 -0 -0 -0 -0 -0 -0 -0 -0 -0 -0 -0 -0 -0 -0 -0 -0
-0 -0 -0 -0 -0 -0 -0 -0 -0 -0 -0 -0 -1 -3 -2 -6 -3 -4 -2 -2 -0 -15 -6 -5 -0 -0 -0 -0 -0 -0 -0 -0 -0 -0 -0 -0 -0 -0 -0 -0 -0 -0 -0 -0 -0 -0 -0
-0 -0 -0 -0 -0 -0 -0 -0 -0 -0 -0 -1 -2 -1 -0 -2 -7 -17 -23 -8 -9 -12 -8 -11 -4 -0 -0 -0 -0 -0 -0 -0 -0 -0 -0 -0 -0 -0 -0 -0 -0 -0 -0 -0 -0 -0 -0
-0 -0 -0 -0 -0 -0 -0 -0 -0 -0 -0 -2 -1 -0 -0 -0 -7 -4 -5 -8 -6 -3 -0 -0 -0 -0 -0 -0 -0 -0 -0 -0 -0 -0 -0 -0 -0 -0 -0 -0 -0 -0 -0 -0 -0 -0 -0
-0 -0 -0 -0 -0 -0 -4 -0 -0 -0 -2 -1 -1 -0 -0 -0 -0 -3 -3 -6 -7 -8 -6 -4 -0 -0 -0 -0 -0 -0 -0 -0 -0 -0 -0 -0 -0 -0 -0 -0 -0 -0 -0 -0 -0 -0 -0
-0 -0 -0 -0 -0 -0 -0 -0 -5 -0 -1 -1 -1 -0 -0 -0 -1 -0 -3 -4 -5 -6 -8 -1 -6 -3 -0 -0 -0 -0 -0 -0 -0 -0 -0 -0 -0 -0 -0 -0 -0 -0 -0 -0 -0 -0 -0
-0 -0 -0 -0 -0 -4 -0 -1 -4 -2 -2 -4 -2 -1 -0 -1 -3 -1 -2 -2 -6 -3 -10 -20 -12 -0 -0 -3 -6 -6 -0 -0 -0 -0 -0 -0 -0 -0 -0 -0 -0 -0 -0 -0 -0 -0 -0
-1 -1 -0 -1 -2 -1 -0 -0 -1 -11 -3 -4 -1 -1 -1 -0 -0 -4 -18 -4 -4 -4 -14 -16 -1 -8 -13 -3 -12 -12 -5 -7 -8 -3 -0 -0 -0 -0 -0 -0 -0 -0 -0 -0 -0 -21 -30
Wind_Speed
27 28 28 28 28 28 28 28 28 28 29 29 30 31 33 35 35 35 35 35 34 33 32 31 30 29 25 24 28 11 12 12 14 38 38 35 32 28 24 18 17 19 11 9 10 9 10
29 29 30 29 29 29 29 29 30 30 30 30 30 30 31 32 35 36 36 36 35 34 33 31 30 26 23 28 19 14 12 10 27 40 39 37 32 29 24 21 21 14 18 6 8 9 9
31 31 31 31 31 31 31 31 31 32 32 32 32 31 31 31 32 34 37 37 36 34 32 30 26 21 29 29 18 15 17 31 33 39 39 39 35 26 24 23 20 14 4 4 5 7 9
32 32 32 32 32 32 33 33 33 33 34 33 33 33 33 32 32 32 33 36 36 33 30 27 21 19 30 22 28 17 22 20 28 32 37 34 33 31 30 20 22 27 5 9 6 6 10
34 34 34 34 34 34 34 34 35 35 35 35 35 35 35 34 34 33 33 31 32 28 24 18 17 20 30 12 17 26 25 21 23 27 31 32 35 35 31 27 26 25 26 2 7 6 10
34 34 34 34 34 35 35 35 36 36 36 36 36 37 36 36 35 35 32 29 25 19 21 20 27 24 30 26 10 9 5 17 11 11 20 38 35 37 33 29 30 25 30 11 7 3 8
35 35 35 35 35 36 36 37 37 37 37 37 38 38 38 37 36 33 30 21 17 17 19 24 20 20 15 11 9 6 8 10 11 15 37 32 33 35 30 30 33 20 1 30 5 5 5
36 36 36 36 36 37 37 38 38 38 38 38 39 39 39 38 37 31 27 23 20 23 29 33 37 29 19 12 13 7 9 9 26 41 42 19 39 37 34 32 35 30 31 28 3 7 11
37 37 37 37 37 38 38 39 39 39 39 39 40 40 40 40 35 27 23 19 23 26 27 33 14 20 19 17 22 10 14 15 25 41 39 40 40 43 34 35 35 32 32 30 11 3 10
38 38 38 38 39 39 39 40 40 40 40 40 40 40 40 40 27 28 20 20 25 23 27 29 12 17 17 16 31 16 13 15 25 41 43 45 38 32 40 37 35 35 33 33 29 8 23
38 38 39 39 40 40 41 41 41 41 41 41 41 41 39 35 32 24 23 26 26 20 27 10 3 8 6 17 14 18 13 18 34 29 31 30 17 38 33 29 35 36 31 30 32 9 30
39 39 40 40 40 41 41 42 43 43 43 43 43 42 40 29 26 27 27 27 22 22 30 13 5 5 6 14 26 13 19 21 31 32 38 42 36 47 42 32 32 39 37 9 35 34 27
39 39 40 40 40 41 42 42 43 44 44 45 45 45 40 33 25 26 27 23 25 31 16 16 9 3 6 8 14 16 22 23 25 28 27 25 32 28 35 23 29 18 33 16 23 34 37
39 40 40 40 41 41 41 42 43 44 44 46 47 46 33 28 29 27 24 24 36 28 28 17 14 10 11 8 14 13 21 29 29 30 27 27 31 19 20 36 24 25 27 31 17 32 38
39 39 40 40 40 41 42 42 42 43 44 45 46 36 33 27 23 24 25 36 33 35 27 27 21 20 17 15 11 14 23 29 28 29 33 26 37 22 28 27 24 25 29 37 42 18 37
39 39 40 40 40 41 42 42 42 42 43 43 39 38 36 23 25 26 34 44 35 27 26 29 34 23 23 19 19 18 16 18 27 31 35 33 33 30 22 26 40 50 19 40 50 46 43
38 39 39 39 39 40 41 41 41 40 41 42 34 32 21 20 22 31 44 43 43 45 35 32 32 35 30 25 24 26 23 21 19 22 35 41 30 27 24 29 27 34 31 28 50 48 47
38 38 38 38 38 38 39 39 39 38 39 36 32 33 20 23 35 36 44 42 42 44 40 40 37 36 37 34 32 28 30 27 24 20 26 34 32 36 28 26 30 31 32 38 35 38 48
37 37 38 37 37 36 36 36 36 35 33 33 32 37 32 26 37 39 40 42 41 41 41 41 44 42 35 37 37 34 34 27 26 23 24 20 40 36 38 28 29 34 35 36 38 43 41
36 36 35 36 34 34 34 34 34 33 30 29 30 31 25 27 34 37 38 36 37 36 40 43 43 42 43 43 39 35 36 27 23 30 28 24 30 40 37 33 26 33 33 37 35 44 37
35 34 34 33 35 33 33 33 33 31 28 26 26 27 25 29 27 30 33 36 37 38 35 37 40 45 43 45 42 40 35 33 27 32 31 30 31 33 43 41 33 28 34 39 42 43 45
30 28 29 30 32 32 33 32 31 29 26 26 29 26 27 33 35 34 35 38 42 41 39 37 37 31 40 46 42 39 39 39 33 31 32 32 33 35 45 36 42 40 36 35 40 39 39
26 24 21 21 22 24 29 32 30 27 21 23 23 28 28 32 32 33 34 35 35 30 32 35 33 34 35 33 35 37 37 36 34 32 34 35 31 32 41 32 33 46 39 34 31 35 34
20 18 17 17 17 17 19 23 28 26 21 25 26 27 26 31 32 32 29 31 35 33 37 37 31 37 37 33 39 41 39 37 34 33 30 35 34 33 33 29 35 37 23 28 38 36 32
15 14 14 14 16 16 14 17 20 25 25 27 25 22 25 31 30 31 31 32 34 36 39 43 42 39 37 37 39 41 42 43 42 36 30 25 29 33 35 35 34 38 21 21 23 31 31
15 14 14 14 16 20 19 16 18 19 24 28 27 24 22 26 30 28 31 32 34 34 36 35 34 32 34 40 41 49 52 47 46 40 36 33 31 38 35 40 34 30 26 23 25 37 22
14 13 14 14 16 17 13 6 17 24 10 12 27 24 24 26 31 32 32 31 30 32 33 32 29 33 36 41 46 50 52 45 53 52 44 44 42 44 41 42 44 28 28 24 27 27 20
18 17 14 15 16 16 15 9 12 6 13 9 10 14 23 28 33 32 33 33 31 31 36 25 31 33 35 42 46 45 48 50 48 50 45 52 47 48 45 47 48 25 31 35 29 21 25
19 18 20 20 16 16 14 12 7 24 6 19 5 27 14 24 30 31 32 36 36 36 33 35 33 28 23 32 33 38 45 42 47 52 47 49 52 49 47 49 29 30 35 26 24 19 24
Wind_Direction
334 333 331 329 327 325 322 318 313 310 307 305 302 302 306 304 300 298 295 291 287 283 280 278 278 280 288 220 222 313 302 286 246 192 197 199 206 207 218 242 241 228 291 288 16 352 10
339 337 335 332 327 325 322 320 318 315 311 306 302 298 295 295 299 296 293 290 287 282 278 274 276 286 291 226 290 301 294 275 231 204 203 201 210 213 237 234 236 271 217 359 21 23 0
337 336 334 332 330 329 325 321 318 316 313 309 305 301 296 292 288 290 292 289 285 281 278 276 282 295 247 219 292 294 267 221 219 211 204 210 216 230 226 228 243 255 318 359 359 13 2
337 335 332 329 327 326 325 324 320 316 313 311 307 304 300 295 290 285 283 286 283 281 282 284 293 295 252 284 241 273 245 246 229 227 220 226 228 231 224 258 234 208 91 105 71 13 341
336 335 334 332 330 328 324 320 319 317 313 311 308 305 302 298 294 289 282 273 279 286 290 300 300 290 238 302 273 185 236 247 241 236 232 231 218 213 218 196 175 173 170 80 79 74 323
339 337 335 333 332 330 327 324 320 316 315 312 310 306 303 299 296 292 285 268 298 308 291 289 276 278 229 260 287 153 189 251 244 237 238 209 220 201 190 178 181 160 185 119 139 26 326
339 337 335 332 330 328 327 324 321 319 316 313 311 308 304 299 297 292 294 318 333 317 285 272 287 275 291 286 288 248 159 242 240 237 214 174 176 181 176 179 196 160 0 201 70 90 348
338 336 334 331 328 327 325 323 321 319 317 314 311 309 307 300 296 286 290 307 315 302 284 266 257 265 277 275 269 230 170 210 216 198 201 199 189 186 186 186 202 232 218 185 46 84 145
337 335 333 332 330 327 324 322 319 318 317 315 312 309 307 303 291 295 307 314 306 302 288 263 256 257 256 266 259 225 177 183 230 204 185 192 202 199 186 193 197 204 198 199 162 353 147
336 333 332 330 328 325 324 321 318 316 314 313 312 309 308 305 299 303 306 310 303 308 288 277 280 270 241 254 254 247 198 227 244 211 209 212 230 183 195 193 189 200 195 217 205 120 187
336 332 329 328 326 324 322 319 317 316 313 311 309 307 306 302 295 297 304 299 299 304 277 332 321 322 198 213 272 219 201 232 240 244 241 191 210 192 189 186 190 198 192 196 221 161 216
335 331 329 327 326 324 320 318 316 313 311 309 307 304 303 303 295 291 297 294 293 281 270 294 320 290 231 194 252 237 225 233 245 246 241 235 238 215 204 210 188 204 217 247 209 226 196
338 334 331 329 327 325 321 318 315 312 310 307 304 299 294 290 286 297 293 284 271 263 289 277 276 246 203 222 226 230 215 223 231 241 244 246 247 243 240 238 190 200 195 245 214 201 222
340 335 332 328 327 325 322 319 316 313 310 306 303 295 293 286 285 287 282 264 259 270 258 288 271 255 243 233 200 236 226 235 234 242 248 242 242 233 234 194 197 195 191 199 252 249 232
340 337 334 331 327 324 321 318 316 314 311 307 303 298 288 283 283 280 264 251 260 260 274 266 270 261 253 247 246 226 243 239 233 235 243 244 248 235 244 246 221 198 203 199 228 254 246
339 337 335 332 329 326 323 318 315 313 312 309 301 292 280 285 278 268 257 251 255 272 276 267 258 261 255 245 246 227 231 212 240 235 241 251 254 246 242 247 241 210 232 234 230 244 246
342 339 336 334 331 327 323 319 317 315 312 306 298 288 285 291 276 259 252 254 256 258 270 263 261 257 260 255 249 254 247 253 206 225 240 244 257 249 238 237 236 238 240 249 236 239 242
344 341 338 336 333 331 328 324 319 316 314 305 292 277 288 289 264 259 255 255 258 257 263 258 260 260 260 258 258 251 253 255 260 211 226 240 250 250 242 246 248 245 242 248 254 251 246
347 345 342 340 338 336 333 328 322 317 317 307 284 278 282 277 262 258 259 256 258 258 256 256 255 254 258 256 256 255 253 256 262 247 216 217 243 250 251 244 245 245 246 248 251 253 255
348 348 346 344 342 341 339 334 324 315 312 306 287 277 273 266 265 264 260 259 255 257 258 257 257 255 252 250 253 255 251 255 259 252 255 231 246 245 246 249 247 247 247 250 251 253 258
353 352 349 347 341 343 340 337 329 318 310 305 283 275 282 267 266 262 262 260 258 257 258 257 257 250 250 248 248 249 254 252 261 252 254 244 244 250 248 254 252 250 253 252 251 253 254
2 2 359 354 348 344 338 335 330 320 311 295 281 286 285 271 269 266 262 258 256 256 259 253 252 259 248 248 248 249 250 251 259 247 247 246 250 251 250 254 254 257 254 254 254 253 256
4 3 2 360 357 353 344 330 326 323 324 303 297 289 284 272 268 263 261 260 257 261 256 253 261 258 249 253 258 258 259 257 257 254 245 243 244 249 252 252 258 255 249 255 254 257 257
4 2 0 357 353 350 349 343 327 318 315 299 294 294 284 270 269 267 271 262 258 261 255 257 261 255 252 276 266 257 253 252 254 254 254 241 244 248 252 249 248 243 248 243 259 260 261
1 357 354 351 356 353 343 339 331 317 306 291 296 297 286 272 274 272 270 269 267 261 259 256 259 259 265 265 256 246 243 245 245 247 249 248 245 246 248 249 258 257 285 229 232 221 264
357 349 346 346 344 349 347 336 328 318 303 287 286 287 292 281 269 278 273 271 264 266 262 260 259 260 259 254 247 241 237 238 238 240 244 248 249 248 245 249 232 258 259 278 276 267 257
353 342 346 346 348 359 357 359 273 228 314 307 282 281 280 284 276 272 269 269 271 268 265 264 263 257 256 247 243 241 240 242 239 238 237 240 242 242 245 251 253 264 264 268 267 279 280
7 4 354 356 9 13 28 38 21 277 295 304 320 301 276 277 273 274 270 268 270 268 257 272 265 255 252 245 243 242 243 240 244 241 240 238 239 241 244 247 250 263 264 260 278 275 276
11 9 14 18 21 32 39 37 58 305 137 178 162 249 305 284 275 278 272 264 265 263 263 265 260 264 261 249 248 247 245 245 242 240 241 242 238 242 245 245 261 267 259 275 272 283 279